Regional Weather Roundup
Issued by NWS State College, PA

Home | Current Version | Previous Version | Graphics & Text | Print | Product List | Glossary On
Versions: 1 2 3 4 5 6 7 8 9 10 11 12 13 14 15 16 17 18 19 20 21 22 23 24 25 26 27 28 29 30 31 32 33 34 35 36 37 38 39 40 41 42 43 44 45 46 47 48 49 50
000
ASUS41 KCTP 260203
RWRCTP

REGIONAL WEATHER ROUNDUP
NATIONAL WEATHER SERVICE STATE COLLEGE PA
1000 PM EDT FRI JUL 25 2014

Note: "fair" indicates few or no clouds below 12,000 feet with no
significant weather and/or obstructions to visibility.

* = STATION THAT DOES NOT REPORT PRECIPITATION /E.G. RAIN...SNOW...ETC/
    THUNDER OR FOG.

PAZ002>004-007>009-013>016-020>023-029>032-260300-
WESTERN PENNSYLVANIA

CITY           SKY/WX    TMP DP  RH WIND       PRES   REMARKS
ERIE           MOCLDY    66  55  67 CALM      30.01R
MEADVILLE      MOCLDY    63  56  78 N3        30.04R
FRANKLIN*      MOCLDY    63  50  63 CALM      30.04S
NEW CASTLE       N/A     61  58  90 CALM      30.04R
BEAVER COUNTY  NOT AVBL
BUTLER*        MOCLDY    61  52  72 CALM      30.05R
PITTSBURGH INT CLOUDY    69  56  62 W3        30.03R
PITTSBURGH     PTCLDY    72  52  49 SW7       30.03R
INDIANA*       MOCLDY    63  55  77 CALM      30.08R
LATROBE        CLEAR     66  61  82 CALM      30.03S
WASHINGTON CO* MOCLDY    61  55  82 CALM      30.04R
$$

PAZ004>006-010>012-017>019-024>028-033>037-041-042-045-046-049>053-260300-
CENTRAL PENNSYLVANIA

CITY           SKY/WX    TMP DP  RH WIND       PRES   REMARKS
BRADFORD       PTCLDY    58  50  75 CALM      30.05R
DUBOIS         PTCLDY    64  51  62 CALM      30.04R
CLEARFIELD     PTCLDY    61  54  77 CALM      30.04R
JOHNSTOWN      MOCLDY    65  47  52 CALM      30.07R
ALTOONA        PTCLDY    65  57  75 CALM      30.04R
STATE COLLEGE  PTCLDY    65  57  75 W5        30.03R
WILLIAMSPORT   PTCLDY    65  56  72 NW3       29.99R
SELINSGROVE    PTCLDY    60  57  89 CALM      30.01R
FT INDIANTOWN  CLEAR     61  54  75 N1        30.02S
CAPITAL CITY   CLEAR     66  54  65 CALM      30.01S
HARRISBURG     PTCLDY    66  57  72 SE5       30.00S
YORK           CLEAR     63  57  81 SE3       30.02S
$$

PAZ038>040-043-044-047-048-054-055-060>062-067>071-260300-
EASTERN PENNSYLVANIA

CITY           SKY/WX    TMP DP  RH WIND       PRES   REMARKS
SCRANTON       PTCLDY    69  50  50 S3        30.01S
MOUNT POCONO   PTCLDY    64  54  69 W5        30.06S
ALLENTOWN      CLEAR     69  53  56 CALM      30.01S
QUAKERTOWN*    CLEAR     64  59  82 CALM      30.03F
READING        CLEAR     71  54  54 S3        30.01S
LANCASTER      CLEAR     66  56  70 SE3       30.02S
COATESVILLE    CLEAR     68  54  60 CALM      30.05S
POTTSTOWN      CLEAR     70  55  59 CALM      30.04R
BLUE BELL      CLEAR     66  59  77 CALM      30.03R
DOYLESTOWN     CLEAR     66  59  78 CALM      30.02R
WILLOW GROVE   NOT AVBL
NORTH PHILA    CLEAR     75  53  46 SW3       30.03R
PHILADELPHIA   PTCLDY    75  57  53 SW6       30.03R
$$


USA.gov is the U.S. government's official web portal to all federal, state and local government web resources and services.